Regional Weather Roundup
Issued by NWS

Home | Current Version | Previous Version | Text Only | Print | Product List | Glossary Off
Versions: 1 2 3 4 5 6 7 8 9 10 11 12 13 14 15 16 17 18 19 20 21 22 23 24 25 26 27 28 29 30 31 32 33 34 35 36 37 38 39 40 41 42 43 44 45 46 47 48 49 50

000
ASUS43 KMKX 280020
RWRWI

WISCONSIN REGIONAL WEATHER ROUNDUP
NATIONAL WEATHER SERVICE MILWAUKEE/SULLIVAN WI
700 PM CDT FRI MAR 27 2015

NOTE: "FAIR" INDICATES FEW OR NO CLOUDS BELOW 12,000 FEET WITH NO
SIGNIFICANT WEATHER AND/OR OBSTRUCTIONS TO VISIBILITY.

WIZ001-002-006>008-014>016-023>028-280100-
NORTHWEST WISCONSIN

CITY           SKY/WX    TMP DP  RH WIND       PRES   REMARKS
SUPERIOR ARPT  CLEAR     27   8  45 E9        30.17S WCI  18
6HR MIN TEMP:  27; 6HR MAX TEMP:  31;

ASHLAND        CLEAR     24   5  44 NE7       30.19S WCI  16
6HR MIN TEMP:  24; 6HR MAX TEMP:  31;

HAYWARD        CLEAR     33   4  29 CALM      30.12S
6HR MIN TEMP:  27; 6HR MAX TEMP:  35;

SIREN          CLEAR     33  -1  23 W3        30.14S
6HR MIN TEMP:  29; 6HR MAX TEMP:  36;

CUMBERLAND     CLEAR     32   5  32 S5        30.13S WCI  27
RICE LAKE      CLEAR     33   4  29 CALM      30.16R
6HR MIN TEMP:  29; 6HR MAX TEMP:  34;

CHETEK         CLEAR     32   4  31 CALM      30.15R
6HR MIN TEMP:  29; 6HR MAX TEMP:  34;

LADYSMITH      CLEAR     33   3  28 CALM      30.15R
6HR MIN TEMP:  29; 6HR MAX TEMP:  35;

EAU CLAIRE     CLEAR     33   5  30 CALM      30.15R
6HR MIN TEMP:  30; 6HR MAX TEMP:  36;

MENOMONIE      CLEAR     33   4  28 SE5       30.15S WCI  29
6HR MIN TEMP:  30; 6HR MAX TEMP:  36;

NEW RICHMOND   CLEAR     32   4  30 SE3       30.15S
6HR MIN TEMP:  30; 6HR MAX TEMP:  35;

OSCEOLA        CLEAR     33   1  25 CALM      30.17S
6HR MIN TEMP:  31; 6HR MAX TEMP:  36;

$$

WIZ003>005-009-010-017-018-280100-
NORTH CENTRAL WISCONSIN

CITY           SKY/WX    TMP DP  RH WIND       PRES   REMARKS
MANITOWISH WTR CLEAR     27   7  41 N5        30.11S WCI  22
6HR MIN TEMP:  24; 6HR MAX TEMP:  30;

ARBOR VITAE    CLEAR     32   2  28 CALM      30.11R
6HR MIN TEMP:  24; 6HR MAX TEMP:  32;

WOODRUFF       CLEAR     32   2  28 CALM      30.11R
6HR MIN TEMP:  24; 6HR MAX TEMP:  32;

RHINELANDER    CLEAR     28  -1  28 CALM      30.12R
6HR MIN TEMP:  23; 6HR MAX TEMP:  30;

EAGLE RIVER    CLEAR     26  -6  25 NE3       30.11R
6HR MIN TEMP:  23; 6HR MAX TEMP:  28; 6HR PCP:  0.05;

LAND O LAKES   CLEAR     25  -3  29 NE6       30.13R WCI  18
6HR MIN TEMP:  23; 6HR MAX TEMP:  28; 6HR PCP:  0.01;

PHILLIPS       CLEAR     31   4  32 NW3       30.11R
6HR MIN TEMP:  26; 6HR MAX TEMP:  33;

TOMAHAWK       CLEAR     29   1  29 CALM      30.12S
6HR MIN TEMP:  25; 6HR MAX TEMP:  31;

MEDFORD        CLEAR     28  10  47 S5        30.12S WCI  23
6HR MIN TEMP:  26; 6HR MAX TEMP:  31;

MERRILL        CLEAR     30   3  31 N3        30.12S
6HR MIN TEMP:  25; 6HR MAX TEMP:  32;

$$

WIZ029-030-035-036-043>047-280100-
CENTRAL WISCONSIN

CITY           SKY/WX    TMP DP  RH WIND       PRES   REMARKS
WAUSAU         CLEAR     30   0  27 CALM      30.12R
6HR MIN TEMP:  24; 6HR MAX TEMP:  32;

MOSINEE        CLEAR     28   1  31 CALM      30.14S
MARSHFIELD     CLEAR     30   8  39 CALM      30.14R
6HR MIN TEMP:  26; 6HR MAX TEMP:  33;

STEVENS POINT  CLEAR     28   2  33 N3        30.15S
6HR MIN TEMP:  24; 6HR MAX TEMP:  31;

WAUPACA        CLEAR     32  -1  23 N3        30.17R
6HR MIN TEMP:  30; 6HR MAX TEMP:  35;

WAUTOMA        CLEAR     31   4  31 NW6       30.17R WCI  25
6HR MIN TEMP:  28; 6HR MAX TEMP:  34;

WISC RAPIDS    CLEAR     29   5  36 NW6       30.17R WCI  23
6HR MIN TEMP:  26; 6HR MAX TEMP:  33;

CAMP DOUGLAS   CLEAR     32   5  32 NE5       30.14S WCI  27
6HR MIN TEMP:  30; 6HR MAX TEMP:  36;

$$

WIZ011>013-019>022-031-037>040-048>050-280100-
NORTHEAST WISCONSIN

CITY           SKY/WX    TMP DP  RH WIND       PRES   REMARKS
ANTIGO         CLEAR     26   5  40 CALM      30.12R
6HR MIN TEMP:  22; 6HR MAX TEMP:  29;

SHAWANO        CLEAR     31   4  32 CALM      30.16S
6HR MIN TEMP:  29; 6HR MAX TEMP:  34;

OCONTO         CLEAR     22  10  59 E5        30.20R WCI  16
6HR MIN TEMP:  22; 6HR MAX TEMP:  29;

STURGEON BAY   CLEAR     23   7  50 NE3       30.21S
6HR MIN TEMP:  19; 6HR MAX TEMP:  25;

GREEN BAY      CLEAR     27   9  46 E6        30.19R WCI  20
6HR MIN TEMP:  26; 6HR MAX TEMP:  30;

MANITOWOC      CLEAR     24  12  60 E8        30.20R WCI  15
6HR MIN TEMP:  23; 6HR MAX TEMP:  27;

APPLETON       CLEAR     28   1  31 N3        30.17R
CLINTONVILLE   CLEAR     32   0  25 CALM      30.16R
OSHKOSH        CLEAR     27   6  41 SE3       30.17S
6HR MIN TEMP:  26; 6HR MAX TEMP:  29;

$$

WIZ032>034-041-042-053>061-280100-
SOUTHWEST WISCONSIN

CITY           SKY/WX    TMP DP  RH WIND       PRES   REMARKS
LA CROSSE      CLEAR     34   9  35 W3        30.17R
6HR MIN TEMP:  31; 6HR MAX TEMP:  37;

SPARTA         CLEAR     34   4  28 NW3       30.15S
6HR MIN TEMP:  31; 6HR MAX TEMP:  36;

VIROQUA        CLEAR     31   9  39 CALM      30.13S
BOSCOBEL       CLEAR     34   8  33 CALM      30.17S
6HR MIN TEMP:  30; 6HR MAX TEMP:  35;

PRAIRIE DU CHI CLEAR     32   8  36 CALM      30.18R
6HR MIN TEMP:  30; 6HR MAX TEMP:  33;

PLATTEVILLE    CLEAR     31  11  42 W3        30.15F
6HR MIN TEMP:  28; 6HR MAX TEMP:  32;

$$

WIZ056-057-062-063-064-067-068-280100-
SOUTH CENTRAL WISCONSIN

CITY           SKY/WX    TMP DP  RH WIND       PRES   REMARKS
REEDSBURG      CLEAR     32   3  29 NE5       30.15R WCI  27
6HR MIN TEMP:  29; 6HR MAX TEMP:  34;

BARABOO/DELLS  CLEAR     32   3  29 N5        30.15R WCI  27
6HR MIN TEMP:  30; 6HR MAX TEMP:  35;

LONE ROCK      CLEAR     34   5  29 N3        30.16S
6HR MIN TEMP:  31; 6HR MAX TEMP:  37;

MINERAL POINT  CLEAR     32  10  40 W6        30.14S WCI  26
MADISON        CLEAR     31   4  31 NE7       30.15S WCI  24
6HR MIN TEMP:  29; 6HR MAX TEMP:  35;

MIDDLETON      CLEAR     33   9  37 NE6       30.16R WCI  27
6HR MIN TEMP:  31; 6HR MAX TEMP:  36;

WATERTOWN      CLEAR     27   7  42 NE8       30.16S WCI  19
6HR MIN TEMP:  27; 6HR MAX TEMP:  32;

MONROE         CLEAR     30  10  43 CALM      30.14S
JANESVILLE     CLEAR     32   1  27 NE9       30.16R WCI  24
$$

WIZ051-052-058>065-066-070>072-280100-
SOUTHEAST WISCONSIN

CITY           SKY/WX    TMP DP  RH WIND       PRES   REMARKS
MILWAUKEE      FAIR      24  11  57 NE13      30.19R WCI  12
6HR MIN TEMP:  24; 6HR MAX TEMP:  29;

WAUKESHA       CLEAR     25   5  42 NE10      30.15S WCI  15
MILWAUKEE/TIMM CLEAR     25  10  54 NE10      30.19R WCI  15
RACINE         CLEAR     24  12  60 N12       30.20R WCI  13
6HR MIN TEMP:  24; 6HR MAX TEMP:  28;

BURLINGTON     CLEAR     24  12  59 E7        30.18R WCI  16
6HR MIN TEMP:  24; 6HR MAX TEMP:  30;

KENOSHA        CLEAR     24  13  62 NE10      30.18R WCI  14
6HR MIN TEMP:  24; 6HR MAX TEMP:  31;

FOND DU LAC    CLEAR     27   5  39 NE7       30.18R WCI  19
6HR MIN TEMP:  26; 6HR MAX TEMP:  31;

SHEBOYGAN      CLEAR     24  11  57 E9        30.19R WCI  14
6HR MIN TEMP:  24; 6HR MAX TEMP:  28;

WEST BEND      CLEAR     27   0  31 N7        30.17R WCI  19
JUNEAU         CLEAR     27   7  42 NE6       30.18S WCI  20
6HR MIN TEMP:  27; 6HR MAX TEMP:  31;

$$

LSZ147-162-280100-
LAKE SUPERIOR

STATION/POSITION TIME  TEMP    WIND        PRES    WAVE
                       AIR SEA DIR/SP/G            HT/PER
                 (UTC) (F)     (DEG/KT/KT) (MB)    (FT/S)
DEVILS ISLAND    0000   23     130/  7/  9 1024.0S
PORT WING        2340   28      40/ 11/ 12 1022.0F
SAXON HARBOR     2300   24      40/  9/ 11 1022.4F
$$

LMZ867-665-643>646-280100-
LAKE MICHIGAN

STATION/POSITION TIME  TEMP    WIND        PRES    WAVE
                       AIR SEA DIR/SP/G            HT/PER



USA.gov is the U.S. government's official web portal to all federal, state and local government web resources and services.